TELKOM 3S

Last updated on Wed Nov 20 2024 00:02:42 GMT+0000 (Coordinated Universal Time)

1 41944U 17007A 24323.88923779 -.00000360 00000+0 00000+0 0 9992 2 41944 0.0148 305.4503 0003064 307.6547 243.4563 1.00271025 28377
UTC large
Height (km)
Speed (km/s)
/
Latitude / Longitude
Inclination (degrees)
Orbital Period (minutes)
Azimuth
Elevation
Range (km)
Doppler Factor

Next 0 passes for location: London (51.5072 / 0.1276)

Sorry there are no passes over London.